Regional Weather Roundup
Issued by NWS

Home | Current Version | Previous Version | Text Only | Print | Product List | Glossary On
Versions: 1 2 3 4 5 6 7 8 9 10 11 12 13 14 15 16 17 18 19 20 21 22 23 24 25 26 27 28 29 30 31 32 33 34 35 36 37 38 39 40 41 42 43 44 45 46 47 48 49 50
000
ASUS43 KOAX 061802
RWRNE

WEATHER ROUNDUP FOR NEBRASKA
NATIONAL WEATHER SERVICE OMAHA NE
1200 PM CST FRI MAR 06 2015

NOTES: SATELLITE DATA IS BEING USED TO AUGMENT CLOUD COVER ABOVE
       12000 FEET.
       "FAIR" INDICATES FEW OR NO CLOUDS BELOW 12,000 FEET WITH NO
       SIGNIFICANT WEATHER AND/OR OBSTRUCTIONS TO VISIBILITY.

  * THESE STATIONS DO NOT REPORT WEATHER SUCH AS RAIN...SNOW OR FOG.

NEZ001>004-019>022-054>056-061900-
NEBRASKA PANHANDLE

CITY           SKY/WX    TMP DP  RH WIND       PRES   REMARKS
SCOTTSBLUFF    SUNNY     53  20  27 W16       30.24F
6HR MIN TEMP:  24; 6HR MAX TEMP:  53;

ALLIANCE       SUNNY     54  15  21 W21       30.21S
6HR MIN TEMP:  20; 6HR MAX TEMP:  54;

CHADRON        PTSUNNY   46  25  43 W18       30.22R
6HR MIN TEMP:  29; 6HR MAX TEMP:  46;

KIMBALL        SUNNY     50  17  27 NW18G24   30.24S
SIDNEY         SUNNY     54  16  22 NW13      30.26S
6HR MIN TEMP:  27; 6HR MAX TEMP:  54;

$$

NEZ057>060-069>072-079>082-061900-
SOUTHWEST NEBRASKA

CITY           SKY/WX    TMP DP  RH WIND       PRES   REMARKS
NORTH PLATTE   SUNNY     56  19  23 W10       30.23S
6HR MIN TEMP:  14; 6HR MAX TEMP:  56;

IMPERIAL         N/A     55  16  21 NW12      30.25F
6HR MIN TEMP:  27; 6HR MAX TEMP:  56;

LEXINGTON      SUNNY     56  21  25 W13       30.22F
MCCOOK         SUNNY     57  21  24 W10       30.26F
6HR MIN TEMP:  22; 6HR MAX TEMP:  57;

$$

NEZ005>010-023>029-035>040-094-061900-
NORTH CENTRAL NEBRASKA

CITY           SKY/WX    TMP DP  RH WIND       PRES   REMARKS
VALENTINE      SUNNY     55  16  21 NW14      30.16F
6HR MIN TEMP:  21; 6HR MAX TEMP:  55;

AINSWORTH      SUNNY     53  15  22 W13       30.17S
BROKEN BOW     SUNNY     57  20  23 NW16      30.20S
6HR MIN TEMP:  23; 6HR MAX TEMP:  57;

ORD            SUNNY     55  15  20 W8        30.18F
6HR MIN TEMP:  13; 6HR MAX TEMP:  55;

$$

NEZ041-046>049-061>064-073>077-083>087-061900-
SOUTH CENTRAL NEBRASKA

CITY           SKY/WX    TMP DP  RH WIND       PRES   REMARKS
GRAND ISLAND   FAIR      56  17  21 W13       30.22F
6HR MIN TEMP:  21; 6HR MAX TEMP:  56;

HASTINGS       FAIR      55  14  19 W13       30.22F
6HR MIN TEMP:  26; 6HR MAX TEMP:  55;

HEBRON         FAIR      58  10  15 W10G16    30.24F
KEARNEY *      FAIR      54  19  26 W13       30.22F
YORK           FAIR      57  18  21 W13       30.21S
$$

NEZ011>018-030>034-042>045-061900-
NORTHEAST NEBRASKA

CITY           SKY/WX    TMP DP  RH WIND       PRES   REMARKS
NORFOLK        FAIR      59  14  17 W18G24    30.14F
6HR MIN TEMP:  20; 6HR MAX TEMP:  59;

BLAIR          FAIR      51  21  30 S10       30.19F
COLUMBUS *     FAIR      55  19  24 SW13      30.20F
FREMONT        FAIR      58  17  20 W8        30.19F
TEKAMAH        FAIR      55  20  25 SW12      30.17F
6HR MIN TEMP:  16; 6HR MAX TEMP:  55;

$$

NEZ050>053-065>068-078-088>093-061900-
SOUTHEAST NEBRASKA

CITY           SKY/WX    TMP DP  RH WIND       PRES   REMARKS
LINCOLN        FAIR      57  17  21 SW15      30.22F
6HR MIN TEMP:  18; 6HR MAX TEMP:  57;

OMAHA EPPLEY   FAIR      48  19  31 SW8       30.21F
6HR MIN TEMP:  18; 6HR MAX TEMP:  48;

FALLS CITY     FAIR      56  21  25 W15       30.25F
6HR MIN TEMP:  28; 6HR MAX TEMP:  56;

$$

NEZ044-045-051>053-067-061900-
OMAHA AREA

CITY           SKY/WX    TMP DP  RH WIND       PRES   REMARKS
OMAHA EPPLEY   FAIR      48  19  31 SW8       30.21F
6HR MIN TEMP:  18; 6HR MAX TEMP:  48;

BLAIR          FAIR      51  21  30 S10       30.19F
FREMONT        FAIR      58  17  20 W8        30.19F
OFFUTT AFB     FAIR      51  19  27 SW10      30.21F
$$



USA.gov is the U.S. government's official web portal to all federal, state and local government web resources and services.